[[{"header":{"parameterUnit":"m.s-1","parameterCategory":1,"la1":30.2992,"la2":30.254,"lo1":-89.0895,"lo2":-89.0443,"dy":0.0025,"dx":0.0025,"nx":19,"ny":19,"refTime":"2026-03-20T21:00:00:Z","depth":0,"parameterNumber":2,"parameterNumberName":"U-component_of_WINDS"},"data":[0,0,0,5.2295,5.23,5.2514,5.2515,5.2807,5.2809,0,0,0,0,0,0,0,0,0,0,0,5.2242,5.2245,5.2294,5.23,5.2514,5.2515,5.2806,5.2809,0,0,0,0,0,0,0,0,0,0,0,5.2241,5.2244,5.2247,5.2301,5.2514,5.2515,5.2805,5.2637,0,0,0,0,0,0,0,0,0,0,5.2426,5.2389,5.2243,5.2247,5.2302,5.2514,5.2515,5.2629,5.2648,5.2717,0,5.2782,0,5.28,5.283,5.2831,0,0,0,5.2292,5.2373,5.2421,5.2248,5.2304,5.2513,5.2415,5.2639,5.2661,5.2742,5.2786,5.2796,5.2805,5.2832,5.2834,5.3257,5.326,0,0,5.228,5.2287,5.2406,5.2435,5.2403,5.2408,5.2422,5.2652,5.27,5.2787,5.2803,5.281,5.2834,5.2836,5.3255,5.3258,0,0,0,5.2252,5.2279,5.2321,5.2424,5.2461,5.2415,5.243,5.269,5.2703,5.2806,5.2813,5.2836,5.284,5.3253,5.3256,5.3377,0,0,0,5.2244,5.2263,5.2316,5.2323,5.2457,5.2578,5.2463,5.2687,5.2712,5.2812,5.2836,5.2843,5.325,5.3255,5.3369,5.3434,0,0,0,5.2225,5.226,5.2295,5.2322,5.2415,5.2574,5.26,5.2692,5.2718,5.2831,5.2843,5.3248,5.3254,5.3361,5.342,5.3545,0,0,0,5.2206,5.2402,5.2297,5.2519,5.2413,5.2648,5.2599,5.2774,5.2886,5.2838,5.325,5.3256,5.3358,5.3412,5.3536,5.3649,5.3697,0,0,5.2457,5.2433,5.2562,5.2474,5.2729,5.2615,5.2888,5.2985,5.299,5.3168,5.3178,5.3371,5.342,5.3543,5.3969,5.4007,0,0,0,5.2644,5.2737,5.2803,5.2909,5.2987,5.3058,5.3112,5.3147,5.3297,5.3083,5.3451,5.3479,5.3551,5.3605,5.3637,5.3697,5.3282,5.3281,5.328,5.3009,5.3003,5.3216,5.3236,5.3339,5.3391,5.3474,5.3531,5.3497,5.3584,5.3636,5.3895,5.3958,5.3982,5.4045,5.3697,5.3697,5.3698,5.3698,5.3374,5.3503,5.3451,5.3638,5.3631,5.3788,5.3845,5.3815,5.396,5.3856,5.3919,5.3803,5.4024,5.4078,5.3707,5.3706,5.3704,5.3704,5.3703,5.3611,5.3671,5.371,5.386,5.3977,5.399,5.413,5.412,5.4111,5.4173,5.4225,5.4223,5.4217,5.4199,5.42,5.4201,5.4202,5.4202,5.4203,5.384,5.3879,5.3999,5.4095,5.416,5.4244,5.4297,5.4361,5.4428,5.4409,5.4409,5.4364,5.4048,5.3967,5.4217,5.4214,5.4212,5.4211,5.421,5.4208,5.4122,5.4307,5.4371,5.4482,5.4597,5.4581,5.4711,5.4762,5.4831,5.4773,5.4541,5.4515,5.4489,5.4422,5.4775,5.4775,5.4775,5.4775,5.4405,5.4391,5.4575,5.4679,5.4779,5.4783,5.4989,5.5031,5.5061,5.5092,5.504,5.495,5.4924,5.4914,5.4879,5.4816,5.5261,5.5261,5.5262,5.463,5.4624,5.4802,5.483,5.4915,5.4988,5.5181,5.5301,5.5318,5.5281,5.5115,5.5095,5.495,5.4904,5.4862,5.4808,5.4692,0,0]},{"header":{"parameterUnit":"m.s-1","parameterCategory":1,"la1":30.2992,"la2":30.254,"lo1":-89.0895,"lo2":-89.0443,"dy":0.0025,"dx":0.0025,"nx":19,"ny":19,"refTime":"2026-03-20T21:00:00:Z","depth":0,"parameterNumber":3,"parameterNumberName":"V-component_of_WINDS"},"data":[0,0,0,4.0519,4.0523,4.0739,4.074,4.1012,4.1014,0,0,0,0,0,0,0,0,0,0,0,4.0453,4.0455,4.0518,4.0524,4.0739,4.074,4.1011,4.1014,0,0,0,0,0,0,0,0,0,0,0,4.0452,4.0454,4.0456,4.0524,4.0739,4.074,4.1011,4.0849,0,0,0,0,0,0,0,0,0,0,4.064,4.0578,4.0454,4.0456,4.0526,4.0739,4.074,4.0842,4.0859,4.0912,0,4.0959,0,4.0991,4.1032,4.1033,0,0,0,4.0525,4.0563,4.0623,4.0457,4.0527,4.0739,4.0642,4.0852,4.0872,4.0936,4.0963,4.0974,4.0996,4.1034,4.1035,4.1335,4.1337,0,0,4.0513,4.0491,4.0609,4.0636,4.0603,4.0635,4.0649,4.0864,4.0892,4.0964,4.098,4.1,4.1036,4.1038,4.1334,4.1336,0,0,0,4.0478,4.0482,4.0537,4.0625,4.0664,4.0642,4.0657,4.0883,4.0902,4.0983,4.1003,4.1037,4.1041,4.1333,4.1335,4.1379,0,0,0,4.0471,4.0462,4.0532,4.052,4.066,4.0776,4.0671,4.0887,4.0913,4.1002,4.1037,4.1043,4.1331,4.1334,4.1375,4.1404,0,0,0,4.0439,4.0458,4.0489,4.0519,4.0611,4.0773,4.0805,4.0893,4.0925,4.1033,4.1044,4.133,4.1333,4.1371,4.1398,4.1475,0,0,0,4.04,4.0526,4.0489,4.0638,4.0609,4.0799,4.0804,4.0947,4.1046,4.1039,4.1332,4.1335,4.137,4.1394,4.1471,4.1537,4.1562,0,0,4.0547,4.0543,4.0633,4.0606,4.0797,4.0768,4.0966,4.1077,4.1108,4.1257,4.1265,4.1376,4.1397,4.1475,4.1712,4.1732,0,0,0,4.0672,4.0736,4.0791,4.0883,4.0971,4.1047,4.113,4.1171,4.1299,4.118,4.1426,4.1439,4.1486,4.1518,4.1535,4.1576,4.1349,4.1348,4.1348,4.085,4.0881,4.103,4.1087,4.1176,4.1259,4.1333,4.1402,4.1409,4.1466,4.1511,4.1652,4.1689,4.1702,4.1744,4.1548,4.1549,4.1549,4.1549,4.1069,4.1163,4.1167,4.1313,4.1344,4.1467,4.1551,4.1551,4.1669,4.1621,4.1663,4.1608,4.1723,4.1761,4.1553,4.1552,4.1552,4.1551,4.1551,4.1189,4.1239,4.1286,4.142,4.152,4.1572,4.1685,4.171,4.1734,4.1776,4.1825,4.1825,4.1827,4.1798,4.1798,4.1799,4.1799,4.1799,4.18,4.1295,4.1346,4.1438,4.1539,4.16,4.1683,4.1765,4.1826,4.1899,4.1908,4.1909,4.1909,4.1728,4.1682,4.1807,4.1806,4.1805,4.1804,4.1804,4.1505,4.1461,4.1603,4.1664,4.1783,4.1879,4.1909,4.2029,4.2083,4.2137,4.2127,4.1989,4.1988,4.1974,4.1936,4.212,4.212,4.212,4.212,4.1606,4.1607,4.1757,4.1852,4.1948,4.1988,4.2146,4.2209,4.2269,4.2303,4.228,4.2232,4.2217,4.2224,4.2205,4.217,4.241,4.241,4.241,4.1737,4.1747,4.1878,4.1935,4.2029,4.2109,4.2257,4.2365,4.2423,4.2422,4.2331,4.2319,4.2241,4.2214,4.2212,4.2182,4.2118,0,0]}]]